Previsão horária em Almancil

Hoje, 18 Janeiro, Segunda-feira

Tempo Temperatura Precipitação Vento Pressão Humidade
00:00 +8°C° 0 mm 2 m/s 765 mmHg 63%
01:00 +7°C° 0 mm 2 m/s 764 mmHg 65%
02:00 +7°C° 0 mm 2 m/s 764 mmHg 68%
03:00 +7°C° 0 mm 2 m/s 764 mmHg 66%
04:00 +7°C° 0 mm 2 m/s 764 mmHg 65%
05:00 +7°C° 0 mm 2 m/s 764 mmHg 64%
06:00 +8°C° 0 mm 2 m/s 764 mmHg 64%
07:00 +9°C° 0 mm 2 m/s 764 mmHg 64%
08:00 +10°C° 0 mm 2 m/s 764 mmHg 64%
09:00 +12°C° 0 mm 2 m/s 765 mmHg 59%
10:00 +13°C° 0 mm 3 m/s 765 mmHg 55%
11:00 +16°C° 0 mm 3 m/s 765 mmHg 50%
12:00 +16°C° 0 mm 3 m/s 764 mmHg 51%
13:00 +16°C° 0 mm 3 m/s 764 mmHg 52%
14:00 +16°C° 0 mm 2 m/s 763 mmHg 53%
15:00 +14°C° 0 mm 2 m/s 763 mmHg 64%
16:00 +12°C° 0 mm 2 m/s 763 mmHg 75%
17:00 +9°C° 0 mm 2 m/s 764 mmHg 87%
18:00 +9°C° 0 mm 2 m/s 764 mmHg 88%
19:00 +9°C° 0 mm 1 m/s 764 mmHg 89%
20:00 +9°C° 0 mm 1 m/s 764 mmHg 90%
21:00 +9°C° 0 mm 1 m/s 764 mmHg 91%
22:00 +9°C° 0 mm 1 m/s 765 mmHg 92%
23:00 +9°C° 0 mm 1 m/s 765 mmHg 93%

Amanhã, 19 Janeiro, Terça-feira

Tempo Temperatura Precipitação Vento Pressão Humidade
00:00 +9°C° 0 mm 1 m/s 764 mmHg 94%
01:00 +8°C° 0 mm 2 m/s 764 mmHg 95%
02:00 +8°C° 0 mm 2 m/s 763 mmHg 95%
03:00 +8°C° 0 mm 2 m/s 763 mmHg 95%
04:00 +9°C° 0 mm 2 m/s 763 mmHg 95%
05:00 +9°C° 0 mm 2 m/s 763 mmHg 94%
06:00 +10°C° 0 mm 2 m/s 763 mmHg 93%
07:00 +10°C° 0 mm 2 m/s 763 mmHg 91%
08:00 +12°C° 0 mm 2 m/s 763 mmHg 90%
09:00 +12°C° 0 mm 3 m/s 763 mmHg 83%
10:00 +13°C° 0 mm 4 m/s 763 mmHg 77%
11:00 +15°C° 0 mm 4 m/s 763 mmHg 71%
12:00 +15°C° 0 mm 4 m/s 762 mmHg 70%
13:00 +15°C° 0 mm 4 m/s 762 mmHg 70%
14:00 +15°C° 0 mm 4 m/s 761 mmHg 70%
15:00 +14°C° 0 mm 4 m/s 761 mmHg 74%
16:00 +13°C° 0 mm 4 m/s 761 mmHg 79%
17:00 +12°C° 0 mm 4 m/s 760 mmHg 84%
18:00 +12°C° 0 mm 5 m/s 760 mmHg 83%
19:00 +12°C° 0 mm 5 m/s 760 mmHg 82%
20:00 +11°C° 0 mm 6 m/s 760 mmHg 81%
21:00 +11°C° 0 mm 6 m/s 759 mmHg 82%
22:00 +12°C° 0 mm 7 m/s 759 mmHg 82%
23:00 +12°C° 0 mm 8 m/s 758 mmHg 83%

Depois de amanhã, 20 Janeiro, Quarta-feira

Tempo Temperatura Precipitação Vento Pressão Humidade
00:00 +12°C° 0.1 mm 8 m/s 757 mmHg 83%
01:00 +12°C° 0.1 mm 9 m/s 757 mmHg 84%
02:00 +12°C° 0.1 mm 10 m/s 756 mmHg 84%
03:00 +12°C° 1.6 mm 11 m/s 755 mmHg 88%
04:00 +12°C° 1.6 mm 12 m/s 755 mmHg 92%
05:00 +12°C° 1.6 mm 13 m/s 754 mmHg 95%
06:00 +13°C° 2.1 mm 11 m/s 754 mmHg 94%
07:00 +13°C° 2.1 mm 10 m/s 754 mmHg 93%
08:00 +13°C° 2.1 mm 9 m/s 754 mmHg 91%
09:00 +15°C° 0.2 mm 9 m/s 754 mmHg 86%
10:00 +15°C° 0.2 mm 9 m/s 754 mmHg 80%
11:00 +16°C° 0.2 mm 9 m/s 755 mmHg 74%
12:00 +16°C° 0.1 mm 9 m/s 754 mmHg 71%
13:00 +14°C° 0.1 mm 10 m/s 754 mmHg 68%
14:00 +14°C° 0.1 mm 10 m/s 754 mmHg 65%
15:00 +13°C° 0.1 mm 9 m/s 755 mmHg 71%
16:00 +12°C° 0.1 mm 9 m/s 755 mmHg 78%
17:00 +11°C° 0.1 mm 8 m/s 755 mmHg 84%
18:00 +11°C° 0.1 mm 8 m/s 756 mmHg 87%
19:00 +11°C° 0.1 mm 7 m/s 756 mmHg 89%
20:00 +10°C° 0.1 mm 7 m/s 757 mmHg 91%
21:00 +10°C° 0.1 mm 7 m/s 757 mmHg 92%
22:00 +10°C° 0.1 mm 6 m/s 757 mmHg 93%
23:00 +10°C° 0.1 mm 6 m/s 758 mmHg 93%

21 Janeiro, Quinta-feira

Tempo Temperatura Precipitação Vento Pressão Humidade
00:00 +10°C° 0 mm 6 m/s 758 mmHg 94%
01:00 +10°C° 0 mm 5 m/s 758 mmHg 94%
02:00 +10°C° 0 mm 5 m/s 758 mmHg 94%
03:00 +10°C° 0 mm 5 m/s 758 mmHg 94%
04:00 +10°C° 0 mm 5 m/s 758 mmHg 95%
05:00 +10°C° 0 mm 5 m/s 758 mmHg 96%
06:00 +11°C° 0.1 mm 6 m/s 759 mmHg 95%
07:00 +13°C° 0.1 mm 6 m/s 759 mmHg 94%
08:00 +14°C° 0.1 mm 7 m/s 759 mmHg 94%
09:00 +15°C° 0.1 mm 8 m/s 759 mmHg 89%
10:00 +16°C° 0.1 mm 9 m/s 759 mmHg 84%
11:00 +17°C° 0.1 mm 10 m/s 759 mmHg 79%
12:00 +16°C° 0.1 mm 10 m/s 759 mmHg 82%
13:00 +16°C° 0.1 mm 10 m/s 758 mmHg 86%
14:00 +14°C° 0.1 mm 10 m/s 758 mmHg 89%
15:00 +15°C° 0.5 mm 9 m/s 758 mmHg 91%
16:00 +15°C° 0.5 mm 8 m/s 758 mmHg 92%
17:00 +15°C° 0.5 mm 7 m/s 758 mmHg 93%
18:00 +14°C° 0.1 mm 6 m/s 758 mmHg 94%
19:00 +13°C° 0.1 mm 5 m/s 759 mmHg 96%
20:00 +13°C° 0.1 mm 4 m/s 759 mmHg 97%
21:00 +12°C° 0 mm 4 m/s 759 mmHg 97%
22:00 +12°C° 0 mm 4 m/s 759 mmHg 97%
23:00 +11°C° 0 mm 4 m/s 759 mmHg 96%

22 Janeiro, Sexta-feira

Tempo Temperatura Precipitação Vento Pressão Humidade
00:00 +11°C° 0 mm 4 m/s 759 mmHg 97%
01:00 +11°C° 0 mm 4 m/s 759 mmHg 97%
02:00 +11°C° 0 mm 4 m/s 759 mmHg 97%
03:00 +12°C° 0 mm 5 m/s 759 mmHg 97%
04:00 +11°C° 0 mm 6 m/s 759 mmHg 97%
05:00 +13°C° 0 mm 6 m/s 759 mmHg 97%
06:00 +12°C° 0.1 mm 7 m/s 759 mmHg 95%
07:00 +14°C° 0.1 mm 7 m/s 760 mmHg 94%
08:00 +13°C° 0.1 mm 8 m/s 760 mmHg 93%
09:00 +15°C° 0.1 mm 8 m/s 760 mmHg 88%
10:00 +15°C° 0.1 mm 9 m/s 760 mmHg 84%
11:00 +16°C° 0.1 mm 9 m/s 761 mmHg 79%
12:00 +16°C° 0.1 mm 8 m/s 760 mmHg 73%
13:00 +16°C° 0.1 mm 8 m/s 760 mmHg 68%
14:00 +15°C° 0.1 mm 7 m/s 760 mmHg 62%
15:00 +14°C° 0 mm 6 m/s 761 mmHg 68%
16:00 +12°C° 0 mm 5 m/s 761 mmHg 75%
17:00 +10°C° 0 mm 5 m/s 762 mmHg 81%
18:00 +10°C° 0 mm 4 m/s 762 mmHg 84%
19:00 +9°C° 0 mm 3 m/s 763 mmHg 87%
20:00 +9°C° 0 mm 2 m/s 763 mmHg 90%
21:00 +9°C° 0 mm 2 m/s 763 mmHg 89%
22:00 +9°C° 0 mm 1 m/s 763 mmHg 89%
23:00 +9°C° 0 mm 1 m/s 764 mmHg 89%

23 Janeiro, Sábado

Tempo Temperatura Precipitação Vento Pressão Humidade
00:00 +9°C° 0 mm 1 m/s 763 mmHg 89%
01:00 +9°C° 0 mm 1 m/s 763 mmHg 89%
02:00 +9°C° 0 mm 1 m/s 763 mmHg 89%
03:00 +9°C° 0 mm 1 m/s 763 mmHg 90%
04:00 +9°C° 0 mm 1 m/s 763 mmHg 90%
05:00 +9°C° 0 mm 1 m/s 762 mmHg 90%
06:00 +10°C° 0 mm 1 m/s 763 mmHg 88%
07:00 +11°C° 0 mm 1 m/s 763 mmHg 86%
08:00 +12°C° 0 mm 1 m/s 763 mmHg 84%
09:00 +13°C° 0 mm 2 m/s 763 mmHg 79%
10:00 +13°C° 0 mm 3 m/s 763 mmHg 75%
11:00 +15°C° 0 mm 4 m/s 763 mmHg 70%
12:00 +15°C° 0 mm 4 m/s 762 mmHg 70%
13:00 +15°C° 0 mm 4 m/s 762 mmHg 69%
14:00 +15°C° 0 mm 5 m/s 761 mmHg 69%
15:00 +14°C° 0 mm 4 m/s 761 mmHg 76%
16:00 +13°C° 0 mm 4 m/s 761 mmHg 84%
17:00 +12°C° 0 mm 4 m/s 761 mmHg 91%
18:00 +12°C° 0 mm 4 m/s 761 mmHg 93%
19:00 +12°C° 0 mm 4 m/s 762 mmHg 95%
20:00 +12°C° 0 mm 4 m/s 762 mmHg 96%
21:00 +12°C° 0 mm 4 m/s 762 mmHg 97%
22:00 +13°C° 0 mm 4 m/s 762 mmHg 97%
23:00 +13°C° 0 mm 4 m/s 761 mmHg 97%
Mostrar mais

Necessitamos do seu Consentimento

A Meteoprog e os seus Fornecedores de Serviços podem armazenar e aceder a dados pessoais como cookies, identificadores do dispositivo ou outras tecnologias semelhantes existentes no seu dispositivo e processar estes dados para personalizar conteúdos e anúncios, assim como funcionalidades nas redes sociais e análise de tráfego.

  • Armazenar e/ou aceder a informações no seu dispositivo

    Os cookies, identificadores do dispositivo ou outras informações podem ser armazenados ou acedidos no seu dispositivo, para os fins acima indicados.

  • Anúncios e conteúdos personalizados, medição de anúncios e conteúdos, dados sobre o público-alvo e desenvolvimento de produtos

    Os anúncios e os conteúdos podem ser personalizados com base num perfil. Podem ser adicionados dados adicionais para uma maior personalização dos anúncios e dos conteúdos. A eficácia dos anúncios e dos conteúdos pode ser medida. Podem ser obtidas informações sobre o público que visualizou os anúncios e os conteúdos. Estes dados podem ser usados para desenvolver ou melhorar sistemas, softwares ou a experiência do utilizador.

Ao clicar em "Eu concordo”, permitirá o uso de cookies, identificadores do dispositivo e web beacons mencionados ou outras tecnologias semelhantes. As configurações do navegador do seu dispositivo podem ser alteradas.

Para certos fins, podem ser invocados interesses legítimos ao invés de consentimento. Pode ler mais informação sobre este assunto na nossa Política de Privacidade e Cookies.